Wind_Speed
42 43 44 45 46 46 46 45 45 46 46 47 47 48 49 49 49 49 49 50 51 52 54 57 58 57 55 54 55 56 56 55 54 53 52 53 55 56 56 56 56 55 54 54 55 55 55 55 55 55 56 57 58 59 60 60 61 61 62 63 64 65 66
41 42 43 45 46 47 48 47 46 45 45 45 46 48 49 49 49 48 47 47 48 49 50 52 55 55 55 55 54 54 53 54 53 51 50 51 52 53 54 54 54 55 55 56 56 55 55 55 55 55 56 57 58 59 59 60 61 61 62 63 64 65 66
40 40 41 43 45 47 48 49 48 47 46 45 45 46 47 48 49 49 47 47 47 47 48 50 52 52 51 52 53 53 53 53 53 51 50 51 52 53 54 54 55 56 56 56 56 55 55 55 56 56 56 57 58 58 59 60 61 62 62 63 64 65 65
40 40 41 41 43 45 47 49 50 50 49 48 46 46 46 47 48 48 48 48 46 46 48 51 52 52 53 54 55 55 55 54 53 52 51 52 52 53 53 54 55 55 55 55 55 55 56 57 57 57 58 58 59 59 59 60 61 62 63 64 64 65 66
42 41 41 41 41 42 44 46 48 50 51 51 50 49 48 48 48 48 49 49 48 47 47 48 51 53 54 55 56 56 56 55 54 53 53 53 53 53 54 54 54 54 54 55 55 56 56 57 58 59 59 59 59 60 60 60 61 62 62 63 65 66 67
43 42 42 42 41 41 42 43 45 47 49 50 51 51 50 49 48 47 47 47 47 46 46 47 50 53 54 54 53 53 52 52 52 52 52 52 52 53 53 54 54 54 54 54 55 56 56 57 58 58 59 59 60 60 60 61 61 62 63 63 64 66 67
44 44 44 43 42 42 41 42 43 43 45 47 48 49 49 49 49 48 47 47 47 46 46 47 50 52 52 51 50 50 50 50 51 51 51 51 51 52 52 52 53 53 53 54 54 55 55 57 58 58 59 60 60 61 61 61 61 62 63 64 65 67 68
44 45 45 44 44 43 42 43 42 42 42 43 44 44 44 44 45 46 47 48 47 47 47 48 50 51 51 51 51 51 51 50 50 49 49 50 50 51 51 52 52 53 53 53 54 55 56 57 58 59 60 60 61 61 62 63 63 63 64 65 66 68 69
44 45 45 44 43 44 43 43 41 40 40 40 40 41 41 41 42 43 46 47 48 48 49 50 50 51 51 52 52 52 52 52 51 51 50 51 51 51 52 52 53 53 53 54 55 56 57 58 59 60 60 61 61 61 62 63 64 64 65 65 66 68 70
43 43 44 43 42 42 42 41 40 39 38 37 37 38 39 40 41 43 45 47 48 49 51 52 52 52 53 54 54 54 54 54 54 53 53 53 52 52 53 53 53 53 54 55 56 57 58 58 59 60 61 61 61 62 63 64 65 65 66 67 67 69 72
41 41 42 41 41 41 39 38 38 38 38 37 38 39 39 38 38 38 40 43 45 48 50 52 54 54 55 55 56 56 55 55 54 54 53 53 53 52 53 53 54 54 55 55 57 58 58 59 59 61 62 62 63 64 64 65 66 67 68 69 70 70 72
39 39 39 39 39 39 38 38 39 39 39 40 40 41 42 42 42 41 42 44 47 48 50 52 54 56 57 57 57 57 56 55 54 53 53 53 53 53 53 53 54 54 55 56 56 57 58 59 60 62 63 64 64 65 66 67 68 69 70 70 71 71 72
36 36 36 37 37 37 38 38 39 39 40 40 40 41 42 44 46 46 46 48 48 49 50 51 53 54 55 55 56 56 55 53 52 52 52 52 52 53 54 54 54 55 55 56 57 58 59 61 62 63 64 65 66 67 68 69 69 70 71 71 72 72 72
34 34 34 34 34 36 37 38 38 37 37 38 38 39 40 42 44 45 47 48 49 48 49 50 50 51 51 52 52 52 52 51 50 50 51 51 52 53 53 54 54 55 56 57 58 59 60 62 63 64 66 68 68 69 69 69 70 70 71 71 72 72 73
34 33 32 31 32 33 35 37 38 38 38 38 38 38 39 40 41 43 44 45 46 47 47 48 49 49 50 50 50 50 49 49 49 49 50 51 51 52 53 54 55 55 56 57 59 60 62 64 65 66 67 68 69 69 69 70 70 71 72 72 72 73 75
33 33 32 31 30 31 32 34 36 38 39 40 40 40 40 40 41 41 41 42 43 45 46 46 47 47 48 48 48 48 48 48 49 50 50 51 52 52 54 55 55 56 57 59 60 62 63 65 66 67 67 68 69 70 70 71 71 72 74 74 75 76 77
32 32 31 30 29 29 30 31 32 34 36 38 39 40 40 40 39 39 38 38 39 41 42 43 44 45 45 46 46 47 47 48 49 49 50 51 52 53 55 56 57 58 60 61 62 63 64 65 66 67 68 69 70 71 72 72 73 74 75 76 77 78 79
31 30 29 29 29 29 30 30 31 32 32 34 35 36 36 37 37 37 37 37 37 38 39 40 41 42 43 44 45 45 46 47 48 49 51 52 54 55 57 58 59 60 61 61 62 63 64 65 67 68 69 71 72 73 75 75 76 77 78 79 80 81 82
30 29 29 29 29 29 30 30 31 31 32 32 33 33 34 34 35 35 36 36 37 37 38 39 40 41 42 43 44 45 47 48 50 52 54 55 56 58 59 59 59 60 61 61 63 64 66 67 69 70 72 73 74 76 77 78 79 80 81 82 83 84 84
30 29 29 30 30 31 31 31 31 31 32 33 33 34 34 35 36 37 37 38 38 39 40 41 42 43 45 46 48 49 51 53 54 55 56 57 57 58 58 59 59 60 61 63 64 66 67 69 71 72 74 75 77 78 79 80 81 82 83 84 85 85 86
30 30 30 30 31 31 31 32 32 32 33 33 34 35 35 36 37 38 39 40 41 42 43 45 46 47 48 50 51 53 54 55 56 56 57 57 58 58 59 60 61 62 64 65 66 67 69 71 73 74 76 77 78 80 81 82 83 84 85 85 86 86 86
31 30 31 31 32 32 32 33 33 34 34 35 35 36 36 37 38 39 40 41 42 43 45 46 47 48 50 51 52 53 54 55 56 57 58 58 59 60 61 62 63 64 65 66 68 69 71 73 75 76 78 79 80 81 82 83 84 85 85 86 86 87 87
31 31 32 32 32 33 33 34 35 35 36 36 37 38 38 39 39 40 41 42 43 44 45 47 48 49 50 51 53 54 55 56 57 58 59 60 61 62 63 64 65 66 67 68 70 72 73 75 77 78 79 80 81 82 83 84 85 85 86 86 86 87 87
32 32 33 33 34 35 35 36 36 37 38 38 39 40 40 41 42 42 43 44 45 46 47 48 50 51 52 53 55 56 58 59 59 60 61 62 63 65 66 66 67 68 70 71 72 73 75 76 78 80 80 81 82 83 84 84 84 85 85 85 85 85 86
34 34 35 35 36 37 37 38 38 39 40 40 41 42 43 43 44 45 46 47 48 49 50 51 52 54 55 56 58 59 60 61 62 63 63 65 66 67 68 69 70 71 72 73 74 75 76 78 80 81 81 82 82 83 83 83 83 83 83 84 84 84 85
37 37 38 39 40 40 41 41 42 42 43 43 44 45 46 46 47 48 49 50 51 52 53 54 55 56 57 59 60 61 62 63 64 65 66 67 68 69 70 71 72 73 74 75 76 77 78 80 81 82 82 82 82 82 82 82 82 82 82 83 83 83 84
42 42 43 43 44 44 44 45 46 46 47 47 48 48 49 49 50 51 52 53 54 54 55 56 57 58 60 61 62 63 64 65 66 67 68 69 70 72 73 74 75 76 77 78 79 79 80 81 82 82 82 82 82 81 81 82 81 81 81 82 83 84 84
46 47 47 48 48 48 48 48 49 50 50 50 51 51 52 53 54 54 55 55 56 57 57 58 59 61 62 63 64 65 66 67 68 69 70 71 73 74 75 76 77 78 79 80 81 81 82 82 82 82 82 81 81 81 81 81 81 80 81 83 83 83 81
49 50 51 51 51 52 52 52 53 53 53 54 54 55 55 56 56 57 57 57 58 58 59 60 61 63 64 65 66 67 68 69 70 71 73 74 75 76 77 79 80 81 82 82 82 83 82 82 82 81 81 80 80 80 81 81 81 81 81 82 81 79 76
52 53 53 54 55 55 56 56 57 57 57 57 58 58 58 59 59 59 59 59 60 60 61 62 64 65 66 67 68 69 70 71 72 73 75 76 77 78 79 80 82 83 83 84 83 83 83 82 81 80 79 79 79 79 80 81 81 81 80 79 77 73 69
54 55 56 57 58 59 59 60 60 60 60 60 61 61 61 61 61 61 61 62 62 63 64 65 66 67 68 69 70 71 72 73 74 75 76 77 78 79 81 82 83 84 85 84 83 83 82 80 79 79 78 79 78 79 80 80 80 79 77 73 70 65 61
56 58 59 60 61 62 62 62 62 62 62 62 63 63 63 63 63 63 63 64 64 65 66 67 68 68 69 71 72 72 73 74 75 76 77 78 79 80 82 83 84 84 84 84 82 81 80 79 79 78 77 78 78 78 79 78 77 74 71 67 63 58 54
59 60 61 62 63 64 64 64 64 64 64 64 64 64 64 64 64 64 65 66 66 67 67 68 69 70 71 72 73 73 74 75 76 77 78 79 80 81 82 84 85 84 84 82 81 80 79 78 78 77 77 77 77 77 76 74 71 68 64 60 56 52 49
61 62 63 63 64 64 64 64 64 64 65 65 65 65 65 65 65 66 67 68 68 69 69 70 71 71 72 73 74 75 76 76 77 79 80 81 82 83 83 84 84 84 82 81 80 79 78 77 77 77 76 76 75 73 71 67 63 60 57 53 50 48 46
61 62 62 63 63 63 63 63 64 64 65 65 65 66 67 67 67 68 70 71 71 71 72 72 73 73 74 75 76 77 78 78 79 81 82 82 83 83 84 84 83 82 81 79 78 77 77 76 76 76 75 74 71 68 64 60 56 53 51 49 47 46 44
62 62 62 62 62 62 63 64 65 65 65 66 66 67 68 69 69 70 72 73 73 74 74 74 74 75 76 76 77 78 79 80 81 82 83 84 84 84 84 83 82 80 79 78 77 76 76 75 75 74 73 70 66 62 58 54 51 49 48 47 45 44 43
Wind_Direction
280 278 274 270 267 265 264 263 263 263 263 261 260 260 260 261 261 261 263 264 264 266 267 266 267 269 271 272 271 271 270 268 266 267 268 268 269 270 270 269 267 266 267 269 271 272 272 272 272 272 271 271 271 271 270 270 269 269 268 268 268 268 269
282 279 276 272 269 266 264 263 262 262 263 262 262 261 262 263 262 261 262 265 266 265 265 267 269 270 270 271 271 270 269 269 268 267 266 266 267 267 267 267 267 267 269 271 271 272 271 271 271 272 271 270 270 270 269 269 268 268 268 268 268 268 268
283 280 277 274 270 267 265 263 262 261 261 261 261 261 261 262 263 262 263 266 268 267 265 265 268 269 268 268 269 268 268 268 268 268 266 266 267 267 267 268 268 269 270 270 270 269 269 270 271 271 270 269 268 268 269 269 269 270 270 269 269 269 269
285 282 279 276 272 269 267 264 263 261 260 259 259 260 261 261 261 261 262 263 265 267 268 267 267 267 266 266 267 267 266 266 267 268 268 268 269 268 268 268 268 268 268 268 268 268 268 269 269 269 268 267 267 268 268 269 270 271 271 270 270 270 270
288 284 281 278 275 272 270 267 264 262 261 260 259 259 260 261 261 260 260 261 261 264 268 270 270 269 268 268 269 269 269 269 269 269 270 270 269 269 268 268 268 268 269 269 269 269 269 268 268 267 266 266 266 267 268 269 269 270 270 270 270 271 270
289 285 282 280 278 275 273 270 268 265 263 262 262 261 261 261 260 260 261 261 261 262 265 269 271 271 271 272 272 272 272 271 271 271 271 271 270 269 269 269 268 269 270 270 270 270 268 267 266 266 266 265 266 267 268 269 269 270 270 271 271 272 273
287 285 282 280 279 277 275 273 270 267 265 263 263 263 262 261 260 259 259 259 260 261 264 268 272 273 273 274 274 273 271 271 271 271 271 271 271 272 272 271 271 271 270 270 268 267 266 265 264 265 265 266 267 267 269 269 270 272 273 273 274 275 275
284 282 281 279 278 277 276 273 271 269 267 265 264 264 264 264 263 261 260 260 260 261 263 267 271 273 273 274 274 273 272 272 272 272 273 273 273 273 273 273 272 272 270 268 266 264 263 263 264 264 266 267 268 269 270 271 271 273 274 275 275 276 276
283 280 279 278 277 275 274 272 270 268 267 266 265 264 264 263 263 261 260 260 260 260 261 264 268 270 271 273 273 273 274 274 273 273 273 274 274 273 273 272 271 270 269 266 264 262 262 263 264 266 267 269 270 271 271 272 273 273 274 274 275 277 279
283 280 279 278 276 274 272 268 265 265 267 268 268 267 265 264 263 262 261 260 260 260 261 262 264 267 269 270 271 272 272 272 272 272 272 272 272 272 271 271 270 269 268 266 264 264 264 265 267 268 269 271 272 272 273 274 275 275 276 276 277 279 282
283 280 279 278 276 274 269 264 260 260 263 265 266 266 266 265 265 265 263 264 265 264 264 264 265 266 268 270 271 272 272 272 272 272 272 272 272 271 270 270 269 269 268 267 267 267 268 268 269 271 272 273 273 274 275 276 277 277 278 279 280 281 282
284 282 280 278 276 272 266 262 260 259 260 260 260 261 262 262 263 262 261 265 268 267 265 265 266 267 269 270 272 273 274 274 274 274 273 272 271 270 269 269 269 269 269 269 269 269 270 271 272 273 274 275 275 276 277 278 279 280 281 281 282 282 283
288 286 283 280 276 270 264 261 262 262 261 261 261 261 261 262 262 261 261 265 268 268 267 268 268 269 270 270 271 272 272 273 272 272 271 270 269 269 269 269 270 270 270 270 271 272 273 274 275 276 277 278 278 279 280 281 282 283 283 284 284 285 285
288 288 286 283 278 271 263 261 262 263 263 263 263 263 263 263 263 263 263 266 268 268 269 270 270 271 272 272 271 270 270 269 268 268 268 268 268 268 269 270 271 271 272 272 273 274 275 277 277 278 280 281 281 282 283 284 284 285 285 286 286 287 288
287 287 287 286 283 277 269 264 262 263 263 263 263 264 264 265 265 266 267 268 269 270 271 271 271 272 272 272 271 270 268 268 267 267 267 268 269 269 270 271 272 273 273 273 274 276 277 279 280 281 282 283 284 285 285 285 285 286 286 287 288 288 289
288 287 286 286 286 284 279 273 269 267 266 265 264 264 265 266 267 267 268 269 270 271 271 271 271 271 272 271 271 269 269 268 268 268 269 270 270 271 271 272 273 274 275 276 277 279 280 281 283 284 285 285 286 286 286 286 287 288 288 289 289 290 290
290 290 288 287 288 287 286 283 280 277 274 271 269 267 267 267 267 268 269 271 272 272 272 272 272 272 272 271 270 269 269 269 269 270 271 271 272 272 273 274 275 276 278 279 280 282 283 284 285 286 287 287 287 288 288 288 289 290 290 290 290 290 290
292 292 292 291 290 290 288 286 284 283 280 278 275 274 273 273 272 272 273 273 274 274 274 274 273 273 272 271 271 270 270 270 271 271 272 273 273 275 276 277 278 280 281 282 283 284 285 286 287 288 289 289 290 290 290 290 290 291 291 291 291 291 291
292 293 293 293 292 291 290 288 287 285 284 283 281 280 280 280 279 279 278 277 277 276 276 275 274 273 272 272 271 271 271 271 272 273 274 275 276 277 279 280 282 283 284 285 286 287 288 289 290 290 291 291 292 292 292 292 293 293 292 292 292 292 292
290 291 291 291 291 291 290 289 289 288 287 286 285 284 283 283 282 281 281 280 279 278 277 276 275 275 274 274 274 274 274 275 276 276 277 278 279 280 282 283 285 286 286 287 288 289 290 291 292 292 292 292 293 293 294 294 294 294 293 293 293 293 294
288 289 290 290 290 290 290 290 290 290 290 289 287 286 285 284 283 282 281 281 280 279 278 278 277 277 277 277 277 278 278 278 279 279 280 281 282 283 284 285 286 287 288 289 290 291 292 292 293 293 293 294 294 294 295 295 295 294 294 295 295 295 295
287 288 289 289 290 290 291 291 291 291 291 290 289 287 286 285 283 282 281 280 280 279 279 278 278 278 278 278 279 279 279 279 280 281 282 283 284 284 285 286 287 288 289 290 291 292 293 294 294 294 295 295 295 296 296 296 296 296 296 296 296 296 297
287 288 289 289 290 291 291 292 291 291 291 290 289 288 287 285 284 283 282 281 280 280 279 279 279 279 279 279 279 280 280 281 281 282 283 284 285 286 286 287 288 289 290 292 293 293 294 295 295 295 296 296 296 297 297 297 296 297 297 297 297 297 297
287 289 289 290 291 291 292 292 292 292 291 290 289 288 287 285 284 283 282 281 281 281 280 280 280 280 280 280 281 281 282 283 283 284 285 286 286 287 287 288 289 290 291 292 293 294 294 295 296 296 297 297 297 297 297 297 297 297 297 297 297 297 297
289 290 290 291 292 292 293 294 293 293 292 291 290 289 288 286 285 283 282 281 281 281 281 281 281 281 281 282 282 283 283 284 285 285 286 287 287 288 289 290 291 291 292 293 293 294 295 295 296 297 297 297 297 296 296 296 296 296 296 296 296 297 297
289 290 290 291 291 292 293 293 293 293 292 291 290 289 288 287 285 284 283 282 282 282 282 281 281 281 282 282 283 284 285 285 286 286 287 288 289 290 290 291 291 292 293 293 294 294 295 296 297 297 297 297 296 296 296 296 296 296 297 297 297 298 298
289 289 290 290 290 291 291 291 291 291 290 290 290 289 287 286 285 285 284 283 283 283 282 282 282 282 283 283 284 285 286 286 287 288 289 290 290 291 291 292 292 293 294 294 295 296 297 298 297 297 297 297 297 296 296 296 296 297 297 298 298 299 299
288 289 289 290 290 291 291 290 289 289 289 289 288 287 286 285 284 284 283 283 283 283 283 283 283 283 283 284 285 286 287 287 288 289 290 291 291 291 292 293 294 294 295 296 297 298 298 298 298 297 297 297 297 296 296 296 297 297 298 299 299 300 299
288 288 289 290 290 291 290 289 289 289 288 288 287 286 285 284 283 283 283 283 283 283 283 283 283 283 284 285 286 287 287 288 289 290 291 291 292 293 294 295 295 296 297 297 298 298 298 298 297 297 297 296 296 296 296 297 298 298 299 299 300 300 299
287 288 288 289 289 289 289 288 288 288 287 287 286 285 284 284 284 284 284 284 284 284 284 284 284 284 285 286 287 287 288 289 290 290 291 292 293 294 295 295 296 296 297 297 298 298 297 297 297 296 296 296 296 297 297 297 298 298 299 299 299 298 297
287 287 288 288 288 288 288 287 287 287 286 285 285 284 284 284 284 284 284 284 285 285 285 285 285 286 286 287 287 288 288 289 290 291 291 292 293 294 294 295 295 296 296 297 297 297 297 296 296 296 296 296 296 297 297 297 298 298 298 298 298 296 294
286 286 287 287 287 286 286 286 286 285 285 284 284 284 284 284 284 284 284 284 284 285 285 285 285 286 286 286 287 288 288 289 290 290 291 292 292 293 294 294 295 296 296 296 296 296 296 296 295 295 296 296 296 297 297 297 297 297 297 296 295 293 291
285 285 285 285 285 284 284 284 284 283 283 283 283 283 283 284 284 284 284 284 285 285 285 285 285 286 286 286 287 287 288 289 289 290 290 291 292 292 293 294 295 296 296 296 295 295 295 295 295 295 296 296 296 296 296 296 296 295 295 293 291 289 288
284 284 284 283 283 283 283 283 282 282 282 282 282 282 283 283 284 284 285 285 285 285 285 285 285 286 286 286 287 287 288 288 289 289 290 291 291 292 294 294 295 295 295 295 295 295 295 294 295 295 295 295 295 296 296 295 293 292 291 289 288 288 287
282 282 282 281 281 281 281 281 281 282 282 282 282 283 283 284 284 285 285 285 286 285 285 285 285 285 286 286 286 287 288 288 289 289 290 291 292 293 294 294 295 295 294 294 294 294 294 294 294 294 294 294 295 295 294 292 290 288 287 286 286 286 285
282 281 281 281 281 281 281 281 282 282 282 282 282 282 283 283 284 284 284 285 285 285 285 285 285 285 285 286 286 287 287 288 288 289 290 291 292 293 294 294 294 294 293 293 293 293 293 293 293 293 293 294 293 292 290 287 285 284 284 285 285 284 283
Height
5579 5578 5577 5576 5575 5575 5574 5574 5574 5575 5575 5576 5577 5577 5577 5577 5578 5578 5579 5580 5580 5581 5581 5581 5581 5582 5582 5582 5582 5582 5582 5582 5582 5581 5580 5579 5579 5579 5579 5579 5579 5580 5580 5581 5580 5580 5579 5579 5579 5579 5579 5578 5578 5578 5578 5577 5577 5576 5576 5575 5574 5573 5572
5573 5571 5570 5569 5568 5568 5568 5568 5567 5567 5568 5569 5569 5570 5570 5571 5571 5572 5572 5573 5573 5574 5574 5574 5575 5575 5575 5575 5575 5575 5575 5575 5575 5574 5573 5573 5573 5573 5573 5573 5572 5572 5573 5573 5573 5572 5571 5571 5571 5571 5571 5570 5569 5569 5569 5569 5569 5568 5567 5567 5566 5564 5563
5566 5565 5563 5562 5561 5561 5561 5561 5561 5561 5561 5561 5562 5562 5563 5564 5564 5565 5565 5566 5566 5566 5567 5567 5567 5567 5568 5568 5567 5568 5568 5568 5568 5567 5567 5567 5566 5566 5566 5566 5566 5565 5565 5565 5565 5565 5564 5563 5563 5563 5563 5562 5561 5561 5561 5560 5560 5559 5559 5558 5556 5555 5554
5559 5558 5557 5555 5554 5554 5553 5553 5553 5554 5554 5554 5554 5555 5556 5556 5557 5558 5558 5559 5559 5559 5559 5559 5559 5560 5560 5560 5560 5560 5561 5561 5560 5560 5560 5560 5560 5560 5560 5559 5559 5558 5558 5558 5558 5558 5557 5556 5556 5556 5556 5555 5554 5553 5553 5552 5551 5551 5550 5549 5548 5546 5545
5552 5551 5550 5548 5547 5547 5546 5546 5546 5546 5546 5547 5547 5548 5548 5549 5550 5550 5551 5551 5552 5552 5552 5552 5552 5553 5553 5553 5553 5553 5554 5554 5553 5553 5553 5553 5553 5553 5553 5552 5552 5551 5551 5550 5550 5550 5550 5549 5548 5547 5548 5548 5546 5545 5545 5544 5543 5542 5542 5541 5539 5537 5536
5545 5544 5543 5542 5541 5540 5539 5539 5539 5539 5539 5540 5540 5540 5541 5542 5542 5543 5544 5544 5545 5545 5546 5546 5546 5546 5546 5546 5546 5546 5546 5546 5546 5546 5546 5546 5546 5546 5546 5545 5545 5545 5544 5543 5542 5542 5542 5541 5540 5539 5539 5540 5539 5537 5537 5536 5535 5534 5533 5533 5531 5528 5526
5539 5537 5536 5535 5534 5533 5533 5532 5532 5532 5532 5532 5533 5533 5534 5534 5535 5536 5537 5537 5538 5539 5539 5539 5539 5539 5539 5539 5539 5539 5538 5538 5538 5538 5538 5538 5538 5538 5538 5538 5538 5538 5537 5536 5535 5535 5534 5533 5532 5532 5531 5530 5530 5529 5528 5528 5527 5525 5524 5524 5522 5519 5517
5532 5530 5529 5528 5527 5527 5526 5526 5525 5525 5525 5525 5526 5526 5527 5528 5528 5529 5530 5530 5531 5532 5532 5532 5531 5531 5531 5531 5530 5530 5530 5530 5530 5530 5530 5530 5530 5530 5531 5530 5530 5530 5529 5529 5528 5527 5526 5524 5523 5523 5523 5521 5521 5521 5520 5519 5519 5518 5516 5515 5514 5510 5507
5526 5524 5522 5522 5521 5520 5519 5519 5519 5519 5518 5519 5519 5520 5520 5521 5522 5522 5523 5523 5523 5524 5524 5523 5523 5523 5523 5522 5522 5522 5522 5523 5523 5522 5522 5522 5522 5522 5522 5522 5522 5522 5521 5521 5520 5519 5518 5516 5514 5514 5514 5513 5512 5512 5511 5510 5510 5509 5508 5507 5505 5501 5497
5519 5517 5516 5515 5515 5514 5513 5513 5513 5512 5512 5513 5513 5513 5514 5515 5515 5515 5516 5516 5516 5516 5516 5516 5515 5515 5515 5515 5515 5515 5515 5515 5515 5515 5514 5514 5514 5514 5514 5514 5514 5514 5513 5513 5512 5511 5510 5508 5506 5506 5505 5504 5504 5503 5502 5501 5500 5499 5498 5497 5497 5494 5487
5512 5511 5510 5509 5508 5507 5507 5507 5507 5507 5507 5507 5507 5507 5508 5508 5508 5509 5509 5509 5509 5509 5509 5509 5508 5508 5508 5508 5507 5507 5507 5507 5507 5507 5507 5506 5506 5506 5506 5506 5506 5506 5505 5505 5503 5502 5501 5500 5499 5497 5496 5496 5495 5494 5493 5491 5490 5490 5489 5487 5486 5485 5480
5506 5505 5503 5502 5502 5501 5501 5501 5501 5501 5501 5501 5501 5501 5501 5502 5502 5502 5502 5502 5502 5502 5502 5502 5502 5501 5501 5501 5501 5501 5500 5500 5500 5499 5499 5499 5499 5498 5498 5498 5498 5498 5498 5497 5495 5494 5492 5491 5491 5488 5486 5486 5486 5485 5483 5482 5481 5479 5479 5477 5475 5475 5472
5500 5499 5498 5496 5496 5495 5495 5495 5495 5495 5495 5495 5495 5495 5495 5495 5495 5496 5496 5496 5496 5496 5495 5495 5495 5495 5494 5494 5494 5493 5493 5492 5492 5491 5491 5491 5491 5490 5490 5490 5490 5490 5490 5489 5487 5485 5483 5481 5481 5479 5476 5475 5475 5475 5473 5472 5471 5469 5467 5466 5464 5463 5460
5496 5494 5492 5491 5490 5489 5489 5489 5489 5489 5489 5489 5489 5489 5489 5489 5489 5489 5489 5489 5489 5489 5489 5488 5488 5488 5487 5486 5486 5486 5485 5485 5484 5484 5483 5483 5483 5482 5482 5482 5482 5482 5482 5480 5478 5477 5474 5472 5471 5470 5467 5465 5464 5464 5462 5461 5460 5458 5455 5454 5453 5452 5448
5491 5490 5488 5487 5485 5484 5484 5483 5483 5483 5483 5483 5483 5482 5482 5482 5482 5482 5482 5482 5482 5482 5481 5481 5481 5480 5480 5479 5479 5478 5478 5477 5477 5476 5476 5476 5475 5475 5474 5474 5475 5474 5473 5471 5469 5468 5466 5463 5461 5460 5458 5455 5453 5453 5452 5450 5449 5447 5444 5444 5443 5441 5436
5486 5485 5483 5482 5481 5480 5479 5478 5478 5478 5477 5477 5477 5477 5476 5476 5476 5476 5475 5475 5475 5475 5474 5474 5473 5473 5472 5472 5472 5471 5471 5471 5470 5469 5469 5468 5468 5467 5466 5465 5466 5466 5464 5462 5461 5459 5457 5454 5452 5449 5447 5445 5443 5441 5440 5440 5439 5436 5433 5432 5432 5429 5424
5481 5480 5478 5477 5476 5475 5474 5473 5473 5472 5472 5472 5471 5471 5470 5470 5470 5469 5469 5468 5468 5468 5467 5467 5467 5466 5466 5465 5465 5464 5464 5463 5463 5462 5462 5461 5460 5459 5457 5457 5458 5457 5455 5453 5452 5449 5447 5445 5441 5439 5436 5434 5431 5430 5429 5428 5428 5424 5422 5421 5419 5417 5413
5476 5475 5474 5473 5472 5471 5470 5469 5468 5468 5467 5466 5466 5465 5465 5464 5464 5463 5463 5462 5462 5462 5461 5461 5460 5460 5459 5459 5458 5458 5457 5457 5456 5455 5454 5454 5452 5451 5449 5449 5449 5448 5445 5444 5442 5439 5437 5434 5431 5428 5425 5422 5420 5418 5416 5415 5415 5412 5409 5408 5406 5403 5401
5471 5470 5469 5468 5467 5466 5465 5465 5464 5463 5462 5462 5461 5460 5459 5459 5458 5458 5457 5456 5456 5456 5455 5455 5454 5453 5453 5452 5452 5451 5450 5450 5449 5447 5447 5446 5445 5443 5441 5440 5440 5438 5436 5434 5432 5429 5426 5423 5419 5417 5414 5411 5409 5406 5404 5402 5401 5398 5395 5393 5392 5389 5387
5466 5465 5464 5464 5463 5462 5461 5460 5459 5459 5458 5457 5456 5455 5454 5454 5453 5452 5451 5451 5450 5450 5449 5448 5448 5447 5446 5446 5445 5444 5443 5442 5441 5440 5439 5438 5437 5435 5434 5432 5431 5428 5426 5424 5422 5419 5416 5412 5409 5406 5403 5401 5398 5395 5393 5391 5389 5386 5382 5380 5379 5376 5372
5462 5460 5459 5459 5458 5457 5456 5455 5454 5454 5453 5452 5451 5450 5449 5448 5447 5447 5446 5445 5444 5443 5443 5442 5441 5440 5439 5438 5437 5436 5435 5434 5433 5431 5430 5429 5428 5426 5425 5423 5421 5419 5417 5415 5412 5409 5406 5402 5398 5396 5393 5390 5388 5384 5381 5379 5375 5373 5370 5367 5365 5362 5359
5456 5455 5454 5454 5453 5452 5451 5450 5449 5448 5447 5446 5445 5444 5443 5442 5442 5441 5440 5439 5438 5437 5436 5435 5434 5433 5432 5431 5429 5428 5427 5425 5424 5423 5422 5420 5418 5417 5415 5414 5412 5409 5407 5405 5402 5399 5396 5391 5388 5385 5382 5379 5376 5373 5369 5366 5362 5359 5357 5354 5351 5348 5345
5451 5450 5449 5448 5447 5446 5445 5444 5443 5442 5441 5440 5439 5438 5437 5436 5435 5434 5433 5432 5431 5430 5429 5428 5427 5426 5424 5423 5421 5420 5418 5417 5415 5414 5413 5411 5409 5407 5406 5404 5402 5400 5397 5395 5392 5389 5386 5381 5377 5374 5371 5368 5364 5361 5357 5353 5350 5347 5344 5341 5338 5335 5332
5445 5444 5443 5442 5441 5440 5439 5438 5437 5436 5435 5434 5433 5432 5431 5429 5428 5427 5426 5425 5424 5423 5422 5420 5419 5417 5416 5414 5413 5411 5409 5408 5406 5405 5403 5401 5399 5398 5396 5393 5391 5389 5387 5385 5382 5379 5376 5372 5367 5363 5361 5357 5353 5350 5346 5341 5338 5335 5332 5330 5327 5323 5320
5439 5438 5437 5436 5435 5434 5433 5432 5431 5430 5428 5427 5426 5425 5424 5423 5421 5420 5418 5417 5416 5415 5414 5412 5411 5409 5407 5405 5404 5402 5400 5398 5396 5395 5393 5391 5389 5387 5385 5383 5381 5378 5376 5374 5371 5368 5366 5362 5357 5353 5350 5346 5342 5339 5335 5331 5328 5325 5321 5318 5316 5313 5309
5433 5432 5431 5430 5429 5427 5426 5425 5424 5423 5422 5420 5419 5418 5416 5415 5414 5412 5411 5409 5408 5407 5405 5403 5401 5399 5398 5396 5394 5392 5390 5388 5386 5385 5383 5380 5378 5376 5374 5372 5370 5368 5365 5363 5360 5358 5355 5351 5346 5342 5338 5334 5331 5328 5323 5319 5317 5314 5310 5306 5303 5301 5296
5427 5425 5424 5423 5422 5421 5420 5418 5417 5416 5414 5413 5412 5410 5409 5407 5406 5404 5403 5401 5399 5398 5396 5394 5392 5390 5388 5386 5384 5382 5380 5378 5376 5374 5371 5369 5367 5365 5363 5360 5358 5356 5353 5351 5348 5346 5343 5339 5334 5330 5326 5322 5319 5316 5311 5307 5306 5303 5298 5293 5290 5288 5283
5419 5418 5417 5416 5414 5413 5412 5410 5409 5408 5406 5405 5404 5402 5401 5399 5397 5396 5394 5392 5391 5389 5387 5385 5382 5380 5377 5376 5374 5372 5370 5367 5365 5363 5361 5358 5356 5353 5351 5348 5346 5343 5340 5338 5336 5334 5331 5326 5322 5318 5314 5310 5307 5304 5299 5295 5294 5291 5287 5282 5278 5274 5269
5412 5410 5409 5408 5407 5405 5404 5402 5400 5399 5398 5397 5395 5393 5392 5390 5388 5387 5385 5383 5382 5380 5378 5375 5372 5369 5367 5366 5364 5362 5359 5356 5354 5352 5350 5347 5344 5341 5339 5335 5332 5330 5327 5325 5324 5321 5318 5314 5310 5306 5302 5298 5296 5292 5287 5283 5281 5279 5275 5271 5267 5263 5258
5404 5402 5401 5400 5399 5397 5396 5394 5392 5391 5390 5388 5386 5384 5382 5380 5379 5377 5375 5373 5372 5370 5368 5365 5362 5359 5357 5355 5353 5352 5349 5346 5344 5341 5339 5335 5332 5330 5327 5323 5320 5317 5315 5313 5311 5308 5305 5302 5298 5295 5291 5287 5284 5280 5275 5272 5269 5267 5263 5260 5256 5252 5247
5396 5394 5393 5391 5390 5388 5387 5385 5384 5382 5380 5378 5376 5374 5372 5370 5369 5367 5365 5363 5362 5360 5357 5354 5352 5349 5347 5344 5343 5341 5338 5335 5333 5331 5328 5325 5322 5319 5315 5312 5309 5306 5304 5302 5299 5295 5292 5290 5286 5283 5280 5276 5273 5269 5264 5260 5257 5255 5252 5249 5246 5243 5238
5387 5385 5383 5382 5380 5379 5377 5375 5374 5372 5370 5368 5366 5364 5362 5361 5359 5357 5355 5353 5352 5350 5347 5344 5342 5340 5337 5334 5332 5330 5328 5325 5323 5320 5317 5315 5312 5309 5305 5301 5298 5296 5293 5290 5287 5284 5281 5278 5274 5272 5269 5265 5261 5258 5254 5249 5246 5243 5242 5240 5236 5233 5230
5377 5375 5374 5372 5371 5369 5367 5365 5364 5362 5360 5358 5356 5354 5352 5351 5349 5347 5345 5343 5341 5340 5338 5334 5332 5330 5327 5324 5321 5320 5317 5315 5312 5309 5307 5304 5302 5299 5295 5290 5286 5284 5281 5278 5275 5273 5270 5266 5262 5260 5258 5254 5250 5247 5243 5239 5235 5232 5231 5230 5227 5225 5223
5368 5366 5364 5362 5361 5359 5357 5355 5354 5352 5350 5348 5346 5344 5342 5341 5340 5337 5334 5332 5331 5329 5327 5324 5322 5320 5317 5313 5311 5309 5306 5304 5302 5298 5296 5293 5290 5287 5284 5280 5275 5272 5269 5267 5264 5262 5258 5255 5251 5249 5246 5243 5239 5236 5232 5229 5225 5222 5221 5220 5218 5217 5215
5358 5357 5355 5353 5351 5349 5347 5345 5344 5342 5340 5338 5336 5333 5332 5331 5330 5327 5323 5321 5320 5318 5316 5313 5311 5309 5306 5303 5300 5298 5295 5293 5290 5287 5284 5281 5279 5276 5273 5269 5264 5261 5258 5255 5253 5250 5247 5244 5241 5238 5235 5232 5229 5226 5222 5219 5216 5214 5212 5211 5210 5209 5208
5349 5347 5345 5342 5340 5339 5337 5336 5334 5333 5331 5328 5326 5323 5322 5321 5319 5316 5314 5311 5308 5306 5304 5302 5300 5297 5295 5292 5289 5287 5284 5281 5278 5275 5272 5269 5267 5264 5261 5257 5253 5249 5246 5244 5241 5238 5235 5233 5230 5227 5224 5222 5219 5216 5213 5210 5208 5206 5205 5203 5202 5202 5200